STARLINK-35257

Last updated on Sun Dec 07 2025 00:02:05 GMT+0000 (Coordinated Universal Time)

1 66331U 25253N 25340.58335648 -.01995907 00000+0 -46762-1 0 9999 2 66331 43.0000 20.7081 0001244 292.2330 208.2629 15.44740083 5671
UTC large
Height (km)
Speed (km/s)
/
Latitude / Longitude
Inclination (degrees)
Orbital Period (minutes)
Azimuth
Elevation
Range (km)
Doppler Factor

Next 0 passes for location: London (51.5072 / 0.1276)

Sorry there are no passes over London.